Location: Eppenbrunn
(49.1158°N, 7.5601°E)
Time: 15:04:32
(UTC+00:00)

IGS 5A - Pass Details

Date: 19 August 2020
Orbit: 583 x 588 km, 97.6° (Epoch: 26 September)

Event Time Altitude Azimuth Distance (km) Brightness Sun altitude
Exits shadow 19:21:04 - 114° (ESE) 1,982 5.5 -7.3°
Reaches altitude 10° 19:21:17 10° 112° (ESE) 1,916 5.4 -7.3°
Maximum altitude 19:24:25 21° 63° (ENE) 1,341 5.0 -7.8°
Drops below altitude 10° 19:27:34 10° 14° (NNE) 1,927 6.3 -8.2°
Sets 19:30:07 0° 359° (N) 2,832 7.4 -8.6°
